Winston Salem, NC

8:57 PM EDT on September 26, 2016 (GMT -0400)
Smith Reynolds

Weather History for KINT - February, 2014

Change the Weather History Date:

Thursday, February 27, 2014

  Actual Average Record
Temperature  
Mean Temperature 38 °F -  
Max Temperature 52 °F 53 °F 81 °F (1977)
Min Temperature 24 °F 34 °F 12 °F (1968)
Degree Days  
Heating Degree Days 27    
Moisture  
Dew Point 5 °F    
Average Humidity 33    
Maximum Humidity 65    
Minimum Humidity 10    
Precipitation  
Precipitation 0.00 in - - ()
Sea Level Pressure  
Sea Level Pressure 29.84 in    
Wind  
Wind Speed 5 mph (West)    
Max Wind Speed 16 mph    
Max Gust Speed 25 mph    
Visibility 10 miles    
Events      
Averages and records for this station are not official NWS values.
T = Trace of Precipitation, MM = Missing Value Source: NWS Daily Summary

Daily Weather History Graph

Daily Weather History Graph

Search for Another Location

Airport or City:

Trip Planner

Search our weather history database for the weather conditions in past years. The results will help you decide how hot, cold, wet, or windy it might be!

Date:

Astronomy

Feb. 27, 2014 Rise Set
Actual Time 6:53 AM EST 6:13 PM EST
Civil Twilight 6:27 AM EST 6:39 PM EST
Nautical Twilight 5:58 AM EST 7:09 PM EST
Astronomical Twilight 5:28 AM EST 7:39 PM EST
Moon 5:22 AM EST 4:39 PM EST
Length of Visible Light 12h 11m
Length of Day
11h 20m
Waning Crescent, 4% of the Moon is Illuminated
Feb 27
Waning Crescent
Mar 1
New
Mar 8
First Quarter
Mar 16
Full
Mar 23
Last Quarter

Hourly Weather History & Observations

Time (EST) Temp. Windchill Dew Point Humidity Pressure Visibility Wind Dir Wind Speed Gust Speed Precip Events Conditions
12:54 AM 28.9 °F 25.2 °F 10.9 °F 47% 29.87 in 10.0 mi NNW 3.5 mph - N/A   Clear
1:54 AM 28.0 °F - 10.9 °F 49% 29.86 in 10.0 mi Calm Calm - N/A   Clear
2:54 AM 26.1 °F - 10.9 °F 53% 29.85 in 10.0 mi Calm Calm - N/A   Clear
3:54 AM 25.0 °F - 12.0 °F 58% 29.83 in 10.0 mi Calm Calm - N/A   Partly Cloudy
4:54 AM 24.1 °F 19.7 °F 14.0 °F 65% 29.83 in 10.0 mi South 3.5 mph - N/A   Clear
5:54 AM 24.1 °F - 12.9 °F 62% 29.83 in 10.0 mi Calm Calm - N/A   Clear
6:54 AM 25.0 °F 20.7 °F 12.0 °F 58% 29.83 in 10.0 mi WSW 3.5 mph - N/A   Clear
7:54 AM 27.0 °F 20.5 °F 12.9 °F 56% 29.86 in 10.0 mi West 5.8 mph - N/A   Clear
8:54 AM 32.0 °F 28.7 °F 12.9 °F 45% 29.86 in 10.0 mi Variable 3.5 mph - N/A   Clear
9:54 AM 36.0 °F 28.0 °F 8.1 °F 31% 29.85 in 10.0 mi West 11.5 mph 18.4 mph N/A   Clear
10:54 AM 39.0 °F 33.4 °F 10.0 °F 30% 29.84 in 10.0 mi West 8.1 mph - N/A   Clear
11:54 AM 43.0 °F 37.7 °F 1.9 °F 18% 29.83 in 10.0 mi West 9.2 mph - N/A   Clear
12:54 PM 45.0 °F 40.1 °F 1.9 °F 17% 29.79 in 10.0 mi West 9.2 mph 17.3 mph N/A   Clear
1:54 PM 50.0 °F - 1.0 °F 13% 29.77 in 10.0 mi West 8.1 mph - N/A   Clear
2:54 PM 51.1 °F - -4.0 °F 10% 29.77 in 10.0 mi WSW 9.2 mph 19.6 mph N/A   Clear
3:54 PM 52.0 °F - -4.0 °F 10% 29.78 in 10.0 mi WNW 13.8 mph 21.9 mph N/A   Clear
4:54 PM 50.0 °F - -6.0 °F 10% 29.81 in 10.0 mi WNW 16.1 mph 25.3 mph N/A   Clear
5:54 PM 46.9 °F - -4.0 °F 12% 29.85 in 10.0 mi West 10.4 mph - N/A   Clear
6:54 PM 44.1 °F 40.8 °F -0.9 °F 15% 29.89 in 10.0 mi NW 5.8 mph - N/A   Clear
7:54 PM 41.0 °F 35.8 °F -0.0 °F 18% 29.92 in 10.0 mi NW 8.1 mph - N/A   Clear
8:54 PM 39.0 °F 36.8 °F 1.9 °F 21% 29.94 in 10.0 mi NNW 3.5 mph - N/A   Clear